Regional Weather Roundup
Issued by NWS

Home | Current Version | Previous Version | Text Only | Print | Product List | Glossary Off
Versions: 1 2 3 4 5 6 7 8 9 10 11 12 13 14 15 16 17 18 19 20 21 22 23 24 25 26 27

000
ASUS45 KSLC 161810
RWRUT

UTAH REGIONAL WEATHER ROUNDUP
NATIONAL WEATHER SERVICE SALT LAKE CITY UT
1100 AM MST THU NOV 16 2017

UTZ001>011-023>025-161900-

NORTHERN UTAH

CITY           SKY/WX    TMP DP  RH WIND       PRES   REMARKS
BRIGHAM CITY   CLOUDY    53  29  39 S6        29.82S
HILL AFB       CLOUDY    57  26  30 S21G28    29.80S
LOGAN          CLOUDY    56  32  40 SE8       29.80F
OGDEN          CLOUDY    56  29  35 VRB3      29.80S HAZE
SALT LAKE CITY CLOUDY    63  28  26 S22G33    29.80S
TOOELE VALLEY  CLOUDY    63  32  31 S32G40    29.81R
WENDOVER       CLOUDY    56  28  34 CALM      29.81S
HEBER CITY     CLOUDY    55  27  33 SW14G22   29.90S
WEST JORDAN    CLOUDY    58  32  37 SE25      29.85R

$$

UTZ011>015-024>027-161900-

CENTRAL/NORTHEAST UTAH

CITY           SKY/WX    TMP DP  RH WIND       PRES   REMARKS
PROVO AIRPORT  CLOUDY    59  27  29 S22G31    29.88F
MOAB/CANYONLAN PTSUNNY   57  19  22 E3        29.99F
PRICE          PTSUNNY   48  18  30 SE5       30.03S
RICHFIELD      SUNNY     61  28  29 S9        29.98F
ROOSEVELT      CLOUDY    43  19  39 CALM      30.00F
VERNAL         SUNNY     46  20  35 E3        29.97F

$$

UTZ013>016-019>022-027-161900-

SOUTHERN UTAH

CITY           SKY/WX    TMP DP  RH WIND       PRES   REMARKS
BRYCE CANYON   PTSUNNY   49  27  42 SE12G24   30.14R
CEDAR CITY     CLOUDY    60  33  36 SW23G33   30.00S
MILFORD        CLOUDY    58  28  32 S32G39    29.95F
ST GEORGE      CLOUDY    52  24  33 SW3       30.02F
HANKSVILLE     CLOUDY    46  19  34 CALM      30.03S
KANAB          PTSUNNY   55  23  28 E1        30.13S
BLANDING         N/A     51  17  25 S3        30.23S

$$

REGIONAL REPORTS     COLORADO/ARIZONA

CITY           SKY/WX    TMP DP  RH WIND       PRES   REMARKS
CRAIG, CO      CLOUDY    42  26  53 E5        29.96F
GRAND JUNCTION CLOUDY    53  20  27 VRB3      30.02F
RIFLE, CO      SUNNY     48  20  32 VRB3      30.03F
MONTROSE, CO   CLOUDY    61  22  22 VRB3      30.09F
CORTEZ, CO     SUNNY     58  20  22 SW10      30.15F
COLORADO CITY    N/A     64  28  25 E9        30.09F
PAGE, AZ       MOSUNNY   53  24  32 CALM      30.07F
GRAND CANYON   PTSUNNY   57  23  26 SW12      30.21S
KINGMAN, AZ    MOSUNNY   73  31  21 S10       30.07F
FLAGSTAFF, AZ  MOSUNNY   59  20  22 S18G26    30.22S

$$

REGIONAL REPORTS    NEVADA/IDAHO/WYOMING

CITY           SKY/WX    TMP DP  RH WIND       PRES   REMARKS
LAS VEGAS, NV  CLOUDY    76  41  28 SW13G25   29.92S
ELY, NY        MOSUNNY   52  29  41 SE28G37   29.93S
ELKO, NV       CLOUDY    48  43  82 CALM      29.82F
POCATELLO, ID  LGT RAIN  47  41  80 S22G30    29.73S
BURLEY, ID     CLOUDY    53  38  56 W17G24    29.70R
FORT BRIDGER,  CLOUDY    57  26  30 SW30G37   29.88R
EVANSTON, WY   CLOUDY    50  27  40 SW23G35   29.86R
ROCK SPRINGS,  CLOUDY    54  19  25 SW25G33   29.83F
KEMMERER, WY   CLOUDY    46  27  46 W17G25    29.87S

$$




USA.gov is the U.S. government's official web portal to all federal, state and local government web resources and services.